Tracking 18957 objects as of 21-Jan-2018
HD Live streaming from Space Station
objects crossing your sky now

NOAA 1


10-day predictions
NOAA 1 is classified as:


NORAD ID: 4793
Int'l Code: 1970-106A
Perigee: 1,429.9 km
Apogee: 1,480.1 km
Inclination: 101.8 °
Period: 114.8 minutes
Semi major axis: 7826 km
RCS: 3.071 m2 (large)
Launch date: December 11, 1970
Source: United States (US)
Launch site: AIR FORCE WESTERN TEST RANGE (AFWTR)
aabbcc
Your satellite tracking list
Your tracking list is empty




NASA's NSSDC Master Catalog

Two Line Element Set (TLE):
1  4793U 70106A   18020.82651373 -.00000033 +00000-0 +73989-4 0  9990
2  4793 101.7735 089.6234 0032032 197.9618 297.3706 12.53983983155952
Source of the keplerian elements: AFSPC